Location: Buckeye Ditch
(40.9104°N, 122.9517°W)
Time: 01:18:43
(UTC+00:00)

SR - Pass Details

Date: 24 May 2025
Orbit: 570 x 855 km, 66.7° (Epoch: 11 June)

Event Time Altitude Azimuth Distance (km) Brightness Sun altitude
Exits shadow 07:52:32 44° 266° (W) 1,163 ? -28.1°
Maximum altitude 07:53:45 52° 304° (NW) 1,057 ? -28.2°
Drops below altitude 10° 07:59:23 10° 21° (NNE) 2,474 ? -28.2°
Sets 08:01:54 0° 26° (NNE) 3,392 ? -28.2°
